When you browse on this site, cookies collect data to enhance your experience and personalize the content and advertising you see.
Visit our Privacy Policy to learn more. By continuing to use the site, you agree to this use of cookies and data.
  • In Spain
  • List of Countries
  • For 7 days
  • Water Temperature
  • Weather Map
  • Weather Widgets
  • user-avatar
    Login

    Hourly Weather Vyazgino

    Today, 2 June, Tuesday

    Time Temperature Precipitation Wind Pressure Humidity
    00:00 +7°C° 0.5 mm 6 mps 741 mmHg 93%
    01:00 +7°C° 0.5 mm 6 mps 741 mmHg 93%
    02:00 +6°C° 0 mm 7 mps 741 mmHg 90%
    03:00 +7°C° 0.1 mm 6 mps 741 mmHg 90%
    04:00 +7°C° 0.1 mm 6 mps 740 mmHg 90%
    05:00 +5°C° 0.1 mm 6 mps 740 mmHg 90%
    06:00 +5°C° 1 mm 6 mps 740 mmHg 91%
    07:00 +5°C° 1 mm 7 mps 740 mmHg 93%
    08:00 +5°C° 0 mm 7 mps 740 mmHg 95%
    09:00 +6°C° 0.1 mm 7 mps 740 mmHg 94%
    10:00 +6°C° 0.1 mm 7 mps 740 mmHg 93%
    11:00 +8°C° 0.1 mm 7 mps 740 mmHg 92%
    12:00 +8°C° 0 mm 7 mps 740 mmHg 91%
    13:00 +8°C° 0 mm 7 mps 741 mmHg 90%
    14:00 +8°C° 0 mm 7 mps 741 mmHg 89%
    15:00 +9°C° 0 mm 7 mps 741 mmHg 86%
    16:00 +9°C° 0 mm 7 mps 740 mmHg 83%
    17:00 +10°C° 0 mm 7 mps 740 mmHg 81%
    18:00 +9°C° 0.2 mm 6 mps 740 mmHg 83%
    19:00 +9°C° 0.2 mm 6 mps 740 mmHg 86%
    20:00 +8°C° 0.2 mm 5 mps 740 mmHg 88%
    21:00 +8°C° 0.1 mm 5 mps 740 mmHg 90%
    22:00 +8°C° 0.1 mm 4 mps 740 mmHg 92%
    23:00 +8°C° 0.1 mm 4 mps 740 mmHg 93%

    Tomorrow, 3 June, Wednesday

    Time Temperature Precipitation Wind Pressure Humidity
    00:00 +8°C° 0.1 mm 4 mps 740 mmHg 94%
    01:00 +9°C° 0.1 mm 3 mps 740 mmHg 95%
    02:00 +9°C° 0.1 mm 3 mps 740 mmHg 97%
    03:00 +9°C° 0 mm 3 mps 740 mmHg 97%
    04:00 +9°C° 0 mm 2 mps 739 mmHg 97%
    05:00 +9°C° 0 mm 2 mps 739 mmHg 97%
    06:00 +10°C° 0 mm 2 mps 739 mmHg 95%
    07:00 +12°C° 0 mm 2 mps 739 mmHg 92%
    08:00 +13°C° 0 mm 2 mps 739 mmHg 90%
    09:00 +14°C° 0.1 mm 1 mps 739 mmHg 85%
    10:00 +15°C° 0.1 mm 1 mps 739 mmHg 81%
    11:00 +16°C° 0.1 mm 1 mps 739 mmHg 76%
    12:00 +18°C° 0.3 mm 1 mps 739 mmHg 73%
    13:00 +19°C° 0.3 mm 1 mps 739 mmHg 70%
    14:00 +19°C° 0.3 mm 1 mps 739 mmHg 66%
    15:00 +19°C° 0.2 mm 1 mps 738 mmHg 68%
    16:00 +19°C° 0.2 mm 1 mps 738 mmHg 70%
    17:00 +17°C° 0.2 mm 2 mps 738 mmHg 72%
    18:00 +16°C° 0.1 mm 1 mps 737 mmHg 79%
    19:00 +14°C° 0.1 mm 1 mps 737 mmHg 86%
    20:00 +13°C° 0.1 mm 1 mps 737 mmHg 93%
    21:00 +12°C° 0 mm 1 mps 737 mmHg 94%
    22:00 +11°C° 0 mm 1 mps 736 mmHg 94%
    23:00 +10°C° 0 mm 1 mps 736 mmHg 95%

    Day after tomorrow, 4 June, Thursday

    Time Temperature Precipitation Wind Pressure Humidity
    00:00 +10°C° 0 mm 1 mps 736 mmHg 95%
    01:00 +10°C° 0 mm 1 mps 736 mmHg 95%
    02:00 +9°C° 0 mm 1 mps 736 mmHg 95%
    03:00 +10°C° 0 mm 1 mps 735 mmHg 94%
    04:00 +10°C° 0 mm 1 mps 735 mmHg 94%
    05:00 +10°C° 0 mm 1 mps 735 mmHg 93%
    06:00 +12°C° 0 mm 2 mps 736 mmHg 88%
    07:00 +14°C° 0 mm 2 mps 736 mmHg 83%
    08:00 +14°C° 0 mm 3 mps 736 mmHg 78%
    09:00 +16°C° 0.2 mm 3 mps 736 mmHg 75%
    10:00 +17°C° 0.2 mm 4 mps 736 mmHg 72%
    11:00 +18°C° 0.2 mm 4 mps 736 mmHg 69%
    12:00 +17°C° 0.8 mm 4 mps 736 mmHg 74%
    13:00 +17°C° 0.8 mm 4 mps 736 mmHg 78%
    14:00 +17°C° 0.8 mm 4 mps 736 mmHg 83%
    15:00 +17°C° 0.6 mm 4 mps 736 mmHg 83%
    16:00 +17°C° 0.6 mm 4 mps 736 mmHg 84%
    17:00 +15°C° 0.6 mm 4 mps 736 mmHg 84%
    18:00 +14°C° 0.2 mm 3 mps 736 mmHg 87%
    19:00 +13°C° 0.2 mm 3 mps 736 mmHg 90%
    20:00 +12°C° 0.2 mm 3 mps 736 mmHg 93%
    21:00 +11°C° 0 mm 3 mps 736 mmHg 94%
    22:00 +11°C° 0 mm 3 mps 736 mmHg 95%
    23:00 +10°C° 0 mm 3 mps 736 mmHg 96%

    5 June, Friday

    Time Temperature Precipitation Wind Pressure Humidity
    00:00 +10°C° 0 mm 3 mps 737 mmHg 96%
    01:00 +10°C° 0 mm 3 mps 737 mmHg 96%
    02:00 +10°C° 0 mm 3 mps 737 mmHg 97%
    03:00 +10°C° 0 mm 3 mps 737 mmHg 97%
    04:00 +10°C° 0 mm 3 mps 737 mmHg 97%
    05:00 +10°C° 0 mm 3 mps 737 mmHg 97%
    06:00 +11°C° 0 mm 3 mps 737 mmHg 92%
    07:00 +13°C° 0 mm 4 mps 737 mmHg 87%
    08:00 +14°C° 0 mm 4 mps 738 mmHg 82%
    09:00 +15°C° 0.2 mm 4 mps 738 mmHg 76%
    10:00 +18°C° 0.2 mm 4 mps 738 mmHg 70%
    11:00 +19°C° 0.2 mm 4 mps 738 mmHg 64%
    12:00 +19°C° 0.2 mm 4 mps 738 mmHg 63%
    13:00 +20°C° 0.2 mm 4 mps 737 mmHg 63%
    14:00 +20°C° 0.2 mm 4 mps 737 mmHg 62%
    15:00 +20°C° 0.1 mm 4 mps 737 mmHg 64%
    16:00 +20°C° 0.1 mm 4 mps 737 mmHg 67%
    17:00 +20°C° 0.1 mm 3 mps 737 mmHg 69%
    18:00 +18°C° 0.3 mm 3 mps 737 mmHg 76%
    19:00 +17°C° 0.3 mm 3 mps 737 mmHg 84%
    20:00 +14°C° 0.3 mm 3 mps 737 mmHg 92%
    21:00 +14°C° 0 mm 3 mps 738 mmHg 93%
    22:00 +14°C° 0 mm 3 mps 738 mmHg 94%
    23:00 +13°C° 0 mm 3 mps 738 mmHg 95%

    6 June, Saturday

    Time Temperature Precipitation Wind Pressure Humidity
    00:00 +14°C° 0.1 mm 3 mps 738 mmHg 96%
    01:00 +14°C° 0.1 mm 3 mps 738 mmHg 96%
    02:00 +14°C° 0.1 mm 3 mps 737 mmHg 96%
    03:00 +14°C° 1.2 mm 4 mps 737 mmHg 97%
    04:00 +14°C° 1.2 mm 4 mps 737 mmHg 97%
    05:00 +14°C° 1.2 mm 4 mps 737 mmHg 98%
    06:00 +15°C° 0.2 mm 4 mps 737 mmHg 97%
    07:00 +17°C° 0.2 mm 4 mps 738 mmHg 96%
    08:00 +17°C° 0.2 mm 4 mps 738 mmHg 94%
    09:00 +19°C° 0 mm 4 mps 738 mmHg 90%
    10:00 +20°C° 0 mm 4 mps 738 mmHg 85%
    11:00 +21°C° 0 mm 5 mps 738 mmHg 80%
    12:00 +21°C° 1.1 mm 5 mps 739 mmHg 84%
    13:00 +20°C° 1.1 mm 5 mps 739 mmHg 88%
    14:00 +19°C° 1.1 mm 5 mps 739 mmHg 92%
    15:00 +19°C° 0.4 mm 4 mps 740 mmHg 91%
    16:00 +19°C° 0.4 mm 3 mps 740 mmHg 90%
    17:00 +19°C° 0.4 mm 3 mps 740 mmHg 89%
    18:00 +18°C° 0 mm 2 mps 741 mmHg 91%
    19:00 +19°C° 0 mm 1 mps 741 mmHg 93%
    20:00 +18°C° 0 mm 1 mps 742 mmHg 94%
    21:00 +16°C° 0 mm 1 mps 742 mmHg 95%
    22:00 +15°C° 0 mm 1 mps 743 mmHg 95%
    23:00 +14°C° 0 mm 1 mps 743 mmHg 95%

    7 June, Sunday

    Time Temperature Precipitation Wind Pressure Humidity
    00:00 +14°C° 0 mm 1 mps 743 mmHg 95%
    01:00 +13°C° 0 mm 1 mps 744 mmHg 94%
    02:00 +13°C° 0 mm 1 mps 744 mmHg 94%
    03:00 +13°C° 0 mm 1 mps 744 mmHg 94%
    04:00 +13°C° 0 mm 1 mps 745 mmHg 94%
    05:00 +14°C° 0 mm 1 mps 745 mmHg 94%
    06:00 +16°C° 0 mm 1 mps 745 mmHg 88%
    07:00 +19°C° 0 mm 1 mps 745 mmHg 82%
    08:00 +21°C° 0 mm 1 mps 746 mmHg 76%
    09:00 +22°C° 0 mm 1 mps 746 mmHg 71%
    10:00 +24°C° 0 mm 1 mps 746 mmHg 65%
    11:00 +25°C° 0 mm 1 mps 746 mmHg 59%
    12:00 +25°C° 0 mm 1 mps 746 mmHg 59%
    13:00 +26°C° 0 mm 1 mps 746 mmHg 58%
    14:00 +26°C° 0 mm 1 mps 745 mmHg 58%
    15:00 +25°C° 0.1 mm 1 mps 745 mmHg 61%
    16:00 +25°C° 0.1 mm 1 mps 745 mmHg 65%
    17:00 +25°C° 0.1 mm 2 mps 745 mmHg 68%
    18:00 +23°C° 0.4 mm 1 mps 745 mmHg 76%
    19:00 +22°C° 0.4 mm 1 mps 745 mmHg 84%
    20:00 +20°C° 0.4 mm 1 mps 745 mmHg 91%
    21:00 +20°C° 0.5 mm 1 mps 745 mmHg 93%
    22:00 +19°C° 0.5 mm 1 mps 745 mmHg 94%
    23:00 +19°C° 0.5 mm 1 mps 745 mmHg 95%
    Show more